,,PA_Meas_PMT16A,,PR_Meas_QMR101_102,,RH_Meas_QMH101,,SR_Meas_QMS101,,TA_Meas_QMH101,,GenWind,,GenWind,
time,status,PA,status,PR,status,RH,status,SR,status,TA,status,DirAvg,status,SpdAvg,
2009-09-27, 00:00:05,VALID,918.377,VALID,0,VALID,96.2228,VALID,0.107441,VALID,20.0898,VALID,360,VALID,1.15078,
2009-09-27, 00:01:05,VALID,918.358,VALID,0,VALID,96.2533,VALID,0.107441,VALID,20.0898,VALID,358,VALID,0.377734,
2009-09-27, 00:02:05,VALID,918.334,VALID,0,VALID,96.3829,VALID,0,VALID,20.0508,VALID,21,VALID,1.28828,
2009-09-27, 00:03:05,VALID,918.338,VALID,0,VALID,96.2456,VALID,0,VALID,20.0718,VALID,21,VALID,0.944531,
2009-09-27, 00:04:05,VALID,918.338,VALID,0,VALID,96.3676,VALID,0.107441,VALID,20.0313,VALID,21,VALID,0.407031,
2009-09-27, 00:05:05,VALID,918.315,VALID,0,VALID,96.4515,VALID,0.107441,VALID,20.0508,VALID,21,VALID,0.0382813,
2009-09-27, 00:06:05,VALID,918.31,VALID,0,VALID,96.4972,VALID,0.107441,VALID,20.0703,VALID,21,VALID,0.50625,
2009-09-27, 00:07:05,VALID,918.289,VALID,0,VALID,96.4972,VALID,0,VALID,20.0913,VALID,21,VALID,0.504687,
2009-09-27, 00:08:05,VALID,918.261,VALID,0,VALID,96.4515,VALID,0,VALID,20.0718,VALID,21,VALID,0.164453,
2009-09-27, 00:09:05,VALID,918.254,VALID,0,VALID,96.5658,VALID,0,VALID,20.0913,VALID,21,VALID,0.457422,
2009-09-27, 00:10:05,VALID,918.226,VALID,0,VALID,96.6878,VALID,0,VALID,20.1303,VALID,21,VALID,0.403125,
2009-09-27, 00:11:05,VALID,918.222,VALID,0,VALID,96.7411,VALID,0,VALID,20.1888,VALID,21,VALID,0.553906,
2009-09-27, 00:12:05,VALID,918.192,VALID,0,VALID,96.6344,VALID,0,VALID,20.1888,VALID,21,VALID,0.612109,
2009-09-27, 00:13:05,VALID,918.172,VALID,0,VALID,96.3905,VALID,0,VALID,20.1498,VALID,21,VALID,0.897656,
2009-09-27, 00:14:05,VALID,918.158,VALID,0,VALID,96.4819,VALID,0,VALID,20.1498,VALID,21,VALID,0.943359,
2009-09-27, 00:15:05,VALID,918.175,VALID,0,VALID,96.3752,VALID,0,VALID,20.1108,VALID,21,VALID,1.25312,
2009-09-27, 00:16:05,VALID,918.229,VALID,0,VALID,96.4743,VALID,0,VALID,20.0913,VALID,21,VALID,1.05234,
2009-09-27, 00:17:05,VALID,918.219,VALID,0,VALID,96.5582,VALID,0,VALID,20.1303,VALID,354,VALID,0.942187,
2009-09-27, 00:18:05,VALID,918.185,VALID,0,VALID,96.6115,VALID,0,VALID,20.1108,VALID,354,VALID,0.823828,
2009-09-27, 00:19:05,VALID,918.183,VALID,0,VALID,96.5506,VALID,0,VALID,20.1108,VALID,354,VALID,0.698438,
2009-09-27, 00:20:05,VALID,918.197,VALID,0,VALID,96.5811,VALID,0,VALID,20.1303,VALID,354,VALID,1.01641,
2009-09-27, 00:21:05,VALID,918.134,VALID,0,VALID,96.6039,VALID,0,VALID,20.1303,VALID,354,VALID,0.754297,
2009-09-27, 00:22:05,VALID,918.132,VALID,0,VALID,96.6039,VALID,0,VALID,20.1303,VALID,354,VALID,0.559766,
2009-09-27, 00:23:05,VALID,918.113,VALID,0,VALID,96.5658,VALID,0,VALID,20.1498,VALID,354,VALID,0.523828,
2009-09-27, 00:24:05,VALID,918.142,VALID,0,VALID,96.4515,VALID,0,VALID,20.1303,VALID,354,VALID,0.216016,
2009-09-27, 00:25:05,VALID,918.114,VALID,0,VALID,96.4743,VALID,0,VALID,20.1498,VALID,354,VALID,0.145313,
2009-09-27, 00:26:05,VALID,918.115,VALID,0,VALID,96.3981,VALID,0,VALID,20.1483,VALID,354,VALID,0.749219,
2009-09-27, 00:27:05,VALID,918.098,VALID,0,VALID,96.3295,VALID,0,VALID,20.1498,VALID,354,VALID,0.781641,
2009-09-27, 00:28:05,VALID,918.092,VALID,0,VALID,96.2533,VALID,0,VALID,20.1498,VALID,354,VALID,0.429297,
2009-09-27, 00:29:05,VALID,918.046,VALID,0,VALID,96.2228,VALID,0,VALID,20.1693,VALID,354,VALID,0.0492188,
2009-09-27, 00:30:05,VALID,918.024,VALID,0,VALID,96.0093,VALID,0,VALID,20.1483,VALID,354,VALID,0.0789063,
2009-09-27, 00:31:05,VALID,918.025,VALID,0,VALID,95.9483,VALID,0,VALID,20.1888,VALID,354,VALID,0.0695312,
2009-09-27, 00:32:05,VALID,918.031,VALID,0,VALID,95.712,VALID,0,VALID,20.1693,VALID,354,VALID,0.00078125,
2009-09-27, 00:33:05,VALID,917.969,VALID,0,VALID,95.6586,VALID,0,VALID,20.1888,VALID,354,VALID,0.00195313,
2009-09-27, 00:34:05,VALID,917.975,VALID,0,VALID,95.6357,VALID,0,VALID,20.1888,VALID,354,VALID,0.180469,
2009-09-27, 00:35:05,VALID,917.994,VALID,0,VALID,95.6205,VALID,0,VALID,20.2083,VALID,354,VALID,0.429297,
2009-09-27, 00:36:05,VALID,917.95,VALID,0,VALID,95.5671,VALID,0,VALID,20.2083,VALID,354,VALID,0.028125,
2009-09-27, 00:37:05,VALID,917.967,VALID,0,VALID,95.4604,VALID,0.107441,VALID,20.1857,VALID,354,VALID,0,
2009-09-27, 00:38:05,VALID,917.941,VALID,0,VALID,95.2165,VALID,0,VALID,20.1873,VALID,354,VALID,0.185547,
2009-09-27, 00:39:05,VALID,917.914,VALID,0,VALID,94.9725,VALID,0,VALID,20.2068,VALID,354,VALID,0.345703,
2009-09-27, 00:40:04,VALID,917.884,VALID,0,VALID,94.7209,VALID,0.107441,VALID,20.1873,VALID,285,VALID,0.675391,
2009-09-27, 00:41:04,VALID,917.878,VALID,0,VALID,94.8429,VALID,0.107441,VALID,20.1873,VALID,285,VALID,1.13086,
2009-09-27, 00:42:04,VALID,917.835,VALID,0,VALID,95.2698,VALID,0.107441,VALID,20.1678,VALID,285,VALID,1.11953,
2009-09-27, 00:43:04,VALID,917.841,VALID,0,VALID,95.3689,VALID,0.107441,VALID,20.1678,VALID,285,VALID,0.891016,
2009-09-27, 00:44:04,VALID,917.796,VALID,0,VALID,95.2241,VALID,0.107441,VALID,20.1483,VALID,285,VALID,0.583203,
2009-09-27, 00:45:04,VALID,917.791,VALID,0,VALID,95.3232,VALID,0.107441,VALID,20.1483,VALID,285,VALID,0.503125,
2009-09-27, 00:46:04,VALID,917.775,VALID,0,VALID,95.3613,VALID,0,VALID,20.1483,VALID,285,VALID,0.441016,
2009-09-27, 00:47:04,VALID,917.763,VALID,0,VALID,95.3689,VALID,0.107441,VALID,20.1288,VALID,285,VALID,0.659766,
2009-09-27, 00:48:04,VALID,917.741,VALID,0,VALID,95.4833,VALID,0,VALID,20.1288,VALID,285,VALID,0.967969,
2009-09-27, 00:49:04,VALID,917.728,VALID,0,VALID,95.3156,VALID,0,VALID,20.1093,VALID,285,VALID,1.04883,
2009-09-27, 00:50:04,VALID,917.691,VALID,0,VALID,95.3308,VALID,0.107441,VALID,20.1093,VALID,286,VALID,1.3793,
2009-09-27, 00:51:04,VALID,917.657,VALID,0,VALID,95.2775,VALID,0.107441,VALID,20.0898,VALID,286,VALID,1.30938,
2009-09-27, 00:52:04,VALID,917.669,VALID,0,VALID,95.3156,VALID,0,VALID,20.0523,VALID,23,VALID,0.99375,
2009-09-27, 00:53:04,VALID,917.649,VALID,0,VALID,95.3461,VALID,0,VALID,20.0133,VALID,360,VALID,1.225,
2009-09-27, 00:54:04,VALID,917.639,VALID,0,VALID,95.2775,VALID,0,VALID,19.9743,VALID,360,VALID,1.43867,
2009-09-27, 00:55:04,VALID,917.642,VALID,0,VALID,95.4833,VALID,0,VALID,19.9548,VALID,353,VALID,1.04453,
2009-09-27, 00:56:04,VALID,917.6,VALID,0,VALID,95.6281,VALID,0,VALID,19.9353,VALID,38,VALID,1.6582,
2009-09-27, 00:57:04,VALID,917.574,VALID,0,VALID,95.7196,VALID,0,VALID,19.9158,VALID,7,VALID,1.46836,
2009-09-27, 00:58:04,VALID,917.586,VALID,0,VALID,95.7882,VALID,0,VALID,19.9173,VALID,2,VALID,1.38906,
2009-09-27, 00:59:04,VALID,917.563,VALID,0,VALID,95.8263,VALID,0,VALID,19.8963,VALID,348,VALID,1.0875,
2009-09-27, 01:00:04,VALID,917.568,VALID,0,VALID,95.9331,VALID,0,VALID,19.8573,VALID,348,VALID,1.44336,
2009-09-27, 01:01:04,VALID,917.55,VALID,0,VALID,96.0627,VALID,0,VALID,19.8573,VALID,348,VALID,1.6,
2009-09-27, 01:02:04,VALID,917.546,VALID,0,VALID,96.2151,VALID,0,VALID,19.8573,VALID,348,VALID,1.10508,
2009-09-27, 01:03:04,VALID,917.562,VALID,0,VALID,96.1999,VALID,0,VALID,19.8378,VALID,348,VALID,0.856641,
2009-09-27, 01:04:04,VALID,917.579,VALID,0,VALID,96.2456,VALID,0,VALID,19.8183,VALID,348,VALID,1.3625,
2009-09-27, 01:05:04,VALID,917.598,VALID,0,VALID,96.3295,VALID,0,VALID,19.7988,VALID,348,VALID,1.42578,
2009-09-27, 01:06:04,VALID,917.55,VALID,0,VALID,96.2837,VALID,0,VALID,19.7583,VALID,24,VALID,1.8832,
2009-09-27, 01:07:04,VALID,917.564,VALID,0,VALID,96.1694,VALID,0,VALID,19.7193,VALID,34,VALID,1.32852,
2009-09-27, 01:08:04,VALID,917.542,VALID,0,VALID,96.2151,VALID,0,VALID,19.7793,VALID,2,VALID,1.33711,
2009-09-27, 01:09:04,VALID,917.494,VALID,0,VALID,96.1236,VALID,0,VALID,19.7793,VALID,21,VALID,1.44687,
2009-09-27, 01:10:04,VALID,917.431,VALID,0,VALID,96.2075,VALID,0,VALID,19.7793,VALID,27,VALID,1.54336,
2009-09-27, 01:11:04,VALID,917.423,VALID,0,VALID,96.3295,VALID,0,VALID,19.7598,VALID,28,VALID,1.42188,
2009-09-27, 01:12:04,VALID,917.418,VALID,0,VALID,96.299,VALID,0,VALID,19.7403,VALID,29,VALID,2.12734,
2009-09-27, 01:13:04,VALID,917.405,VALID,0,VALID,96.4286,VALID,0,VALID,19.7208,VALID,29,VALID,1.17227,
2009-09-27, 01:14:04,VALID,917.401,VALID,0,VALID,96.4743,VALID,0,VALID,19.7013,VALID,1,VALID,1.19141,
2009-09-27, 01:15:04,VALID,917.415,VALID,0,VALID,96.5277,VALID,0,VALID,19.7013,VALID,6,VALID,1.26367,
2009-09-27, 01:16:04,VALID,917.461,VALID,0,VALID,96.5353,VALID,0,VALID,19.7013,VALID,10,VALID,1.54102,
2009-09-27, 01:17:04,VALID,917.428,VALID,0,VALID,96.5506,VALID,0,VALID,19.7013,VALID,341,VALID,1.11523,
2009-09-27, 01:18:04,VALID,917.43,VALID,0,VALID,96.5658,VALID,0,VALID,19.7028,VALID,334,VALID,1.70703,
2009-09-27, 01:19:04,VALID,917.412,VALID,0,VALID,96.5887,VALID,0,VALID,19.6818,VALID,356,VALID,1.32734,
2009-09-27, 01:20:04,VALID,917.397,VALID,0,VALID,96.5734,VALID,0,VALID,19.6818,VALID,332,VALID,1.05938,
2009-09-27, 01:21:04,VALID,917.384,VALID,0,VALID,96.5582,VALID,0,VALID,19.6818,VALID,338,VALID,1.66719,
2009-09-27, 01:22:04,VALID,917.341,VALID,0,VALID,96.5353,VALID,0,VALID,19.6608,VALID,2,VALID,1.62617,
2009-09-27, 01:23:04,VALID,917.315,VALID,0,VALID,96.6344,VALID,0,VALID,19.7013,VALID,18,VALID,0.467969,
2009-09-27, 01:24:04,VALID,917.301,VALID,0,VALID,96.642,VALID,0,VALID,19.6803,VALID,18,VALID,1.45898,
2009-09-27, 01:25:04,VALID,917.271,VALID,0,VALID,96.7411,VALID,0,VALID,19.7193,VALID,18,VALID,1.70234,
2009-09-27, 01:26:04,VALID,917.248,VALID,0,VALID,96.703,VALID,0,VALID,19.6998,VALID,40,VALID,1.49688,
2009-09-27, 01:27:04,VALID,917.232,VALID,0,VALID,96.6573,VALID,0,VALID,19.6803,VALID,2,VALID,1.68555,
2009-09-27, 01:28:04,VALID,917.206,VALID,0,VALID,96.5887,VALID,0.107441,VALID,19.6413,VALID,3,VALID,1.81484,
2009-09-27, 01:29:04,VALID,917.178,VALID,0,VALID,96.642,VALID,0.107441,VALID,19.6413,VALID,354,VALID,1.28242,
2009-09-27, 01:30:04,VALID,917.18,VALID,0,VALID,96.703,VALID,0,VALID,19.6608,VALID,354,VALID,0.461719,
2009-09-27, 01:31:04,VALID,917.166,VALID,0,VALID,96.7107,VALID,0.107441,VALID,19.6608,VALID,354,VALID,0.820313,
2009-09-27, 01:32:04,VALID,917.174,VALID,0,VALID,96.7488,VALID,0.107441,VALID,19.6803,VALID,354,VALID,0.625391,
2009-09-27, 01:33:04,VALID,917.14,VALID,0,VALID,96.7107,VALID,0,VALID,19.6818,VALID,354,VALID,0.785547,
2009-09-27, 01:34:04,VALID,917.166,VALID,0,VALID,96.7259,VALID,0,VALID,19.6608,VALID,354,VALID,0.622266,
2009-09-27, 01:35:04,VALID,917.127,VALID,0,VALID,96.6954,VALID,0,VALID,19.6608,VALID,354,VALID,1.10977,
2009-09-27, 01:36:04,VALID,917.157,VALID,0,VALID,96.7259,VALID,0.107441,VALID,19.6608,VALID,354,VALID,0.862109,
2009-09-27, 01:37:04,VALID,917.127,VALID,0,VALID,96.6725,VALID,0,VALID,19.6818,VALID,354,VALID,1.30781,
2009-09-27, 01:38:04,VALID,917.173,VALID,0,VALID,96.6115,VALID,0,VALID,19.6428,VALID,354,VALID,1.00195,
2009-09-27, 01:39:04,VALID,917.158,VALID,0,VALID,96.6573,VALID,0,VALID,19.6623,VALID,354,VALID,0.746094,
2009-09-27, 01:40:04,VALID,917.137,VALID,0,VALID,96.6192,VALID,0,VALID,19.6428,VALID,354,VALID,0.532422,
2009-09-27, 01:41:04,VALID,917.183,VALID,0,VALID,96.5963,VALID,0,VALID,19.6218,VALID,354,VALID,0.730469,
2009-09-27, 01:42:04,VALID,917.16,VALID,0,VALID,96.5658,VALID,0,VALID,19.6233,VALID,354,VALID,0.575391,
2009-09-27, 01:43:04,VALID,917.137,VALID,0,VALID,96.4515,VALID,0,VALID,19.5843,VALID,354,VALID,0.804688,
2009-09-27, 01:44:04,VALID,917.164,VALID,0,VALID,96.1541,VALID,0,VALID,19.5453,VALID,354,VALID,1.21953,
2009-09-27, 01:45:04,VALID,917.145,VALID,0,VALID,96.0855,VALID,0,VALID,19.5258,VALID,354,VALID,0.889844,
2009-09-27, 01:46:04,VALID,917.148,VALID,0,VALID,96.0169,VALID,0,VALID,19.5063,VALID,354,VALID,0.753516,
2009-09-27, 01:47:04,VALID,917.116,VALID,0,VALID,95.8568,VALID,0,VALID,19.5063,VALID,353,VALID,0.500781,
2009-09-27, 01:48:04,VALID,917.076,VALID,0,VALID,95.8111,VALID,0,VALID,19.5063,VALID,353,VALID,0.872656,
2009-09-27, 01:49:04,VALID,917.095,VALID,0,VALID,95.6815,VALID,0,VALID,19.5063,VALID,352,VALID,0.923047,
2009-09-27, 01:50:04,VALID,917.092,VALID,0,VALID,95.5671,VALID,0,VALID,19.4868,VALID,352,VALID,0.767969,
2009-09-27, 01:51:04,VALID,917.066,VALID,0,VALID,95.6662,VALID,0,VALID,19.5063,VALID,352,VALID,0.650391,
2009-09-27, 01:52:04,VALID,917.057,VALID,0,VALID,95.4604,VALID,0,VALID,19.4868,VALID,352,VALID,0.811719,
2009-09-27, 01:53:04,VALID,917.046,VALID,0,VALID,95.4833,VALID,0,VALID,19.4853,VALID,352,VALID,0.941406,
2009-09-27, 01:54:04,VALID,917.003,VALID,0,VALID,95.3079,VALID,0,VALID,19.4868,VALID,352,VALID,1.0168,
2009-09-27, 01:55:04,VALID,916.984,VALID,0,VALID,95.4223,VALID,0,VALID,19.4868,VALID,352,VALID,0.441016,
2009-09-27, 01:56:04,VALID,916.982,VALID,0,VALID,95.3384,VALID,0,VALID,19.4868,VALID,352,VALID,1.09687,
2009-09-27, 01:57:04,VALID,916.935,VALID,0,VALID,95.3537,VALID,0,VALID,19.4868,VALID,352,VALID,0.56875,
2009-09-27, 01:58:04,VALID,916.949,VALID,0,VALID,95.2775,VALID,0,VALID,19.4673,VALID,352,VALID,0.287109,
2009-09-27, 01:59:04,VALID,916.945,VALID,0,VALID,95.4757,VALID,0,VALID,19.4868,VALID,352,VALID,0.687109,
2009-09-27, 02:00:04,VALID,916.901,VALID,0,VALID,95.4604,VALID,0,VALID,19.4868,VALID,352,VALID,0.733594,
2009-09-27, 02:01:04,VALID,916.915,VALID,0,VALID,95.4299,VALID,0,VALID,19.4673,VALID,352,VALID,0.816797,
2009-09-27, 02:02:04,VALID,916.911,VALID,0,VALID,95.529,VALID,0,VALID,19.4868,VALID,352,VALID,0.716406,
2009-09-27, 02:03:04,VALID,916.932,VALID,0,VALID,95.4985,VALID,0,VALID,19.4868,VALID,352,VALID,0.617969,
2009-09-27, 02:04:04,VALID,916.941,VALID,0,VALID,95.4071,VALID,0,VALID,19.4478,VALID,352,VALID,0.675781,
2009-09-27, 02:05:04,VALID,916.934,VALID,0,VALID,95.3232,VALID,0,VALID,19.4283,VALID,352,VALID,0.846094,
2009-09-27, 02:06:04,VALID,916.967,VALID,0,VALID,95.2775,VALID,0,VALID,19.4088,VALID,352,VALID,1.06289,
2009-09-27, 02:07:04,VALID,916.952,VALID,0,VALID,95.4299,VALID,0.107441,VALID,19.4268,VALID,352,VALID,1.15234,
2009-09-27, 02:08:04,VALID,916.912,VALID,0,VALID,95.6434,VALID,0.107441,VALID,19.4463,VALID,352,VALID,1.25703,
2009-09-27, 02:09:04,VALID,916.901,VALID,0,VALID,95.3613,VALID,0.107441,VALID,19.4074,VALID,352,VALID,1.00703,
2009-09-27, 02:10:04,VALID,916.904,VALID,0,VALID,94.8429,VALID,0.107441,VALID,19.3489,VALID,352,VALID,1.2625,
2009-09-27, 02:11:04,VALID,916.885,VALID,0,VALID,94.942,VALID,0.107441,VALID,19.3294,VALID,352,VALID,1.48984,
2009-09-27, 02:12:04,VALID,916.876,VALID,0,VALID,94.881,VALID,0.107441,VALID,19.3294,VALID,352,VALID,1.25859,
2009-09-27, 02:13:04,VALID,916.851,VALID,0,VALID,95.0564,VALID,0.107441,VALID,19.3294,VALID,352,VALID,1.52344,
2009-09-27, 02:14:04,VALID,916.855,VALID,0,VALID,94.9878,VALID,0.107441,VALID,19.3099,VALID,332,VALID,1.24141,
2009-09-27, 02:15:04,VALID,916.824,VALID,0,VALID,95.2927,VALID,0.107441,VALID,19.3294,VALID,332,VALID,1.34961,
2009-09-27, 02:16:04,VALID,916.822,VALID,0,VALID,95.6357,VALID,0.214882,VALID,19.3489,VALID,332,VALID,1.02734,
2009-09-27, 02:17:04,VALID,916.829,VALID,0,VALID,95.8721,VALID,0.107441,VALID,19.3684,VALID,332,VALID,1.19961,
2009-09-27, 02:18:04,VALID,916.815,VALID,0,VALID,96.0017,VALID,0.107441,VALID,19.3489,VALID,332,VALID,1.18164,
2009-09-27, 02:19:04,VALID,916.808,VALID,0,VALID,96.1236,VALID,0.107441,VALID,19.3684,VALID,332,VALID,1.12617,
2009-09-27, 02:20:04,VALID,916.806,VALID,0,VALID,96.1846,VALID,0.107441,VALID,19.3489,VALID,332,VALID,0.905469,
2009-09-27, 02:21:04,VALID,916.785,VALID,0,VALID,96.1236,VALID,0,VALID,19.3099,VALID,332,VALID,1.45039,
2009-09-27, 02:22:04,VALID,916.781,VALID,0,VALID,96.2456,VALID,0.107441,VALID,19.3294,VALID,332,VALID,1.06094,
2009-09-27, 02:23:04,VALID,916.771,VALID,0,VALID,96.2685,VALID,0.107441,VALID,19.3099,VALID,332,VALID,1.34297,
2009-09-27, 02:24:04,VALID,916.728,VALID,0,VALID,96.2151,VALID,0,VALID,19.3113,VALID,341,VALID,1.46133,
2009-09-27, 02:25:04,VALID,916.711,VALID,0,VALID,96.2456,VALID,0,VALID,19.2723,VALID,346,VALID,1.31914,
2009-09-27, 02:26:04,VALID,916.738,VALID,0,VALID,96.2075,VALID,0,VALID,19.2528,VALID,1,VALID,1.91758,
2009-09-27, 02:27:04,VALID,916.697,VALID,0,VALID,95.7196,VALID,0,VALID,19.2528,VALID,11,VALID,1.6625,
2009-09-27, 02:28:04,VALID,916.683,VALID,0,VALID,95.3232,VALID,0,VALID,19.2528,VALID,21,VALID,1.62773,
2009-09-27, 02:29:04,VALID,916.667,VALID,0,VALID,95.125,VALID,0,VALID,19.2918,VALID,21,VALID,1.75273,
2009-09-27, 02:30:04,VALID,916.645,VALID,0,VALID,94.8734,VALID,0,VALID,19.3323,VALID,18,VALID,2.02852,
2009-09-27, 02:31:04,VALID,916.629,VALID,0,VALID,94.5685,VALID,0,VALID,19.3294,VALID,357,VALID,1.37891,
2009-09-27, 02:32:04,VALID,916.605,VALID,0,VALID,94.4617,VALID,0,VALID,19.3698,VALID,345,VALID,1.75664,
2009-09-27, 02:33:04,VALID,916.597,VALID,0,VALID,94.3169,VALID,0,VALID,19.3893,VALID,352,VALID,1.67461,
2009-09-27, 02:34:04,VALID,916.547,VALID,0,VALID,94.1949,VALID,0,VALID,19.3893,VALID,352,VALID,1.80703,
2009-09-27, 02:35:04,VALID,916.549,VALID,0,VALID,94.0806,VALID,0,VALID,19.4088,VALID,12,VALID,1.96406,
2009-09-27, 02:36:04,VALID,916.522,VALID,0,VALID,94.0653,VALID,0,VALID,19.3893,VALID,15,VALID,2.05742,
2009-09-27, 02:37:04,VALID,916.514,VALID,0,VALID,94.0653,VALID,0,VALID,19.3684,VALID,11,VALID,1.6457,
2009-09-27, 02:38:04,VALID,916.477,VALID,0,VALID,94.1492,VALID,0,VALID,19.3893,VALID,2,VALID,1.61055,
2009-09-27, 02:39:04,VALID,916.431,VALID,0,VALID,94.012,VALID,0,VALID,19.3893,VALID,16,VALID,1.6418,
2009-09-27, 02:40:04,VALID,916.438,VALID,0,VALID,93.9434,VALID,0,VALID,19.4088,VALID,349,VALID,1.19297,
2009-09-27, 02:41:04,VALID,916.431,VALID,0,VALID,94.1416,VALID,0,VALID,19.4088,VALID,316,VALID,0.966797,
2009-09-27, 02:42:04,VALID,916.414,VALID,0,VALID,94.1187,VALID,0,VALID,19.4088,VALID,316,VALID,0.709375,
2009-09-27, 02:43:04,VALID,916.442,VALID,0,VALID,94.294,VALID,0,VALID,19.3893,VALID,354,VALID,1.16094,
2009-09-27, 02:44:04,VALID,916.421,VALID,0,VALID,94.3017,VALID,0,VALID,19.3893,VALID,354,VALID,0.541406,
2009-09-27, 02:45:04,VALID,916.404,VALID,0,VALID,94.4922,VALID,0,VALID,19.4088,VALID,354,VALID,0.316406,
2009-09-27, 02:46:04,VALID,916.389,VALID,0,VALID,94.7133,VALID,0,VALID,19.3893,VALID,27,VALID,1.09961,
2009-09-27, 02:47:04,VALID,916.405,VALID,0,VALID,95.2393,VALID,0,VALID,19.3908,VALID,27,VALID,0.780469,
2009-09-27, 02:48:04,VALID,916.37,VALID,0,VALID,95.5367,VALID,0,VALID,19.3308,VALID,27,VALID,0.335938,
2009-09-27, 02:49:04,VALID,916.363,VALID,0,VALID,95.651,VALID,0,VALID,19.3113,VALID,27,VALID,0.259766,
2009-09-27, 02:50:04,VALID,916.338,VALID,0,VALID,95.6357,VALID,0,VALID,19.2723,VALID,27,VALID,0.886719,
2009-09-27, 02:51:04,VALID,916.329,VALID,0,VALID,95.6053,VALID,0,VALID,19.2334,VALID,27,VALID,0.61875,
2009-09-27, 02:52:04,VALID,916.35,VALID,0,VALID,95.7501,VALID,0.107441,VALID,19.2319,VALID,27,VALID,0.160547,
2009-09-27, 02:53:04,VALID,916.356,VALID,0,VALID,95.8187,VALID,0.107441,VALID,19.2124,VALID,27,VALID,0.197266,
2009-09-27, 02:54:04,VALID,916.374,VALID,0,VALID,95.5138,VALID,0.107441,VALID,19.1929,VALID,27,VALID,0.84375,
2009-09-27, 02:55:04,VALID,916.357,VALID,0,VALID,95.7501,VALID,0.107441,VALID,19.1734,VALID,27,VALID,1.04688,
2009-09-27, 02:56:04,VALID,916.363,VALID,0,VALID,95.8111,VALID,0.107441,VALID,19.1539,VALID,27,VALID,0.883594,
2009-09-27, 02:57:04,VALID,916.389,VALID,0,VALID,95.773,VALID,0.107441,VALID,19.1149,VALID,27,VALID,0.648047,
2009-09-27, 02:58:04,VALID,916.347,VALID,0,VALID,95.9254,VALID,0.107441,VALID,19.1164,VALID,27,VALID,0.330469,
2009-09-27, 02:59:04,VALID,916.321,VALID,0,VALID,96.0017,VALID,0.107441,VALID,19.0759,VALID,27,VALID,0.296875,
2009-09-27, 03:00:04,VALID,916.332,VALID,0,VALID,96.0169,VALID,0,VALID,19.0564,VALID,27,VALID,0.123828,
2009-09-27, 03:01:04,VALID,916.358,VALID,0,VALID,96.1236,VALID,0.107441,VALID,19.0564,VALID,27,VALID,0.303516,
2009-09-27, 03:02:04,VALID,916.348,VALID,0,VALID,96.0855,VALID,0,VALID,19.0369,VALID,27,VALID,0.140234,
2009-09-27, 03:03:04,VALID,916.378,VALID,0,VALID,96.1084,VALID,0.107441,VALID,19.0369,VALID,27,VALID,0,
2009-09-27, 03:04:04,VALID,916.354,VALID,0,VALID,96.055,VALID,0.107441,VALID,19.0369,VALID,27,VALID,0.101172,
2009-09-27, 03:05:04,VALID,916.366,VALID,0,VALID,95.9712,VALID,0,VALID,19.0384,VALID,27,VALID,0.167578,
2009-09-27, 03:06:04,VALID,916.401,VALID,0,VALID,95.9254,VALID,0.107441,VALID,19.0175,VALID,27,VALID,0,
2009-09-27, 03:07:04,VALID,916.375,VALID,0,VALID,95.9178,VALID,0.107441,VALID,19.0369,VALID,27,VALID,0,
2009-09-27, 03:08:04,VALID,916.408,VALID,0,VALID,95.8873,VALID,0.107441,VALID,19.0369,VALID,27,VALID,0,
2009-09-27, 03:09:04,VALID,916.42,VALID,0,VALID,95.7806,VALID,0.107441,VALID,19.0369,VALID,27,VALID,0,
2009-09-27, 03:10:04,VALID,916.447,VALID,0,VALID,95.6662,VALID,0.107441,VALID,19.0384,VALID,27,VALID,0,
2009-09-27, 03:11:04,VALID,916.465,VALID,0,VALID,95.6815,VALID,0.107441,VALID,19.0369,VALID,27,VALID,0,
2009-09-27, 03:12:04,VALID,916.461,VALID,0,VALID,95.4757,VALID,0.107441,VALID,19.0175,VALID,27,VALID,0,
2009-09-27, 03:13:04,VALID,916.488,VALID,0,VALID,95.3994,VALID,0,VALID,19.0369,VALID,27,VALID,0.110156,
2009-09-27, 03:14:04,VALID,916.467,VALID,0,VALID,95.186,VALID,0.107441,VALID,19.0175,VALID,27,VALID,0,
2009-09-27, 03:15:04,VALID,916.497,VALID,0,VALID,95.0792,VALID,0.107441,VALID,19.0175,VALID,27,VALID,0,
2009-09-27, 03:16:04,VALID,916.527,VALID,0,VALID,95.1631,VALID,0.107441,VALID,19.0579,VALID,27,VALID,0,
2009-09-27, 03:17:04,VALID,916.521,VALID,0,VALID,95.0945,VALID,0,VALID,19.0369,VALID,27,VALID,0,
2009-09-27, 03:18:04,VALID,916.553,VALID,0,VALID,95.1479,VALID,0.107441,VALID,19.0369,VALID,27,VALID,0.0335938,
2009-09-27, 03:19:04,VALID,916.553,VALID,0,VALID,95.0183,VALID,0.107441,VALID,19.0175,VALID,27,VALID,0.511719,
2009-09-27, 03:20:04,VALID,916.544,VALID,0,VALID,94.8658,VALID,0.107441,VALID,18.9994,VALID,27,VALID,0.600391,
2009-09-27, 03:21:04,VALID,916.505,VALID,0,VALID,94.7819,VALID,0.107441,VALID,18.9799,VALID,27,VALID,0.358203,
2009-09-27, 03:22:04,VALID,916.512,VALID,0,VALID,94.7591,VALID,0,VALID,18.9214,VALID,27,VALID,0.401172,
2009-09-27, 03:23:04,VALID,916.495,VALID,0,VALID,94.9496,VALID,0,VALID,18.9019,VALID,27,VALID,0.328516,
2009-09-27, 03:24:04,VALID,916.479,VALID,0,VALID,95.2012,VALID,0,VALID,18.8824,VALID,27,VALID,0.185547,
2009-09-27, 03:25:04,VALID,916.524,VALID,0,VALID,95.3232,VALID,0,VALID,18.8629,VALID,27,VALID,0.546094,
2009-09-27, 03:26:04,VALID,916.514,VALID,0,VALID,95.4223,VALID,0.107441,VALID,18.8629,VALID,27,VALID,0.5125,
2009-09-27, 03:27:04,VALID,916.524,VALID,0,VALID,95.4909,VALID,0,VALID,18.8434,VALID,27,VALID,0.574609,
2009-09-27, 03:28:04,VALID,916.516,VALID,0,VALID,95.651,VALID,0,VALID,18.824,VALID,27,VALID,0.720703,
2009-09-27, 03:29:04,VALID,916.481,VALID,0,VALID,95.8111,VALID,0,VALID,18.8434,VALID,27,VALID,0.906641,
2009-09-27, 03:30:04,VALID,916.493,VALID,0,VALID,95.9559,VALID,0.107441,VALID,18.8225,VALID,27,VALID,1.05469,
2009-09-27, 03:31:04,VALID,916.476,VALID,0,VALID,96.0779,VALID,0,VALID,18.824,VALID,27,VALID,1.12617,
2009-09-27, 03:32:04,VALID,916.466,VALID,0,VALID,96.2685,VALID,0,VALID,18.8225,VALID,27,VALID,0.905859,
2009-09-27, 03:33:04,VALID,916.46,VALID,0,VALID,96.3524,VALID,0,VALID,18.842,VALID,27,VALID,0.806641,
2009-09-27, 03:34:04,VALID,916.449,VALID,0,VALID,96.3295,VALID,0,VALID,18.8615,VALID,27,VALID,0.711719,
2009-09-27, 03:35:04,VALID,916.469,VALID,0,VALID,96.238,VALID,0.107441,VALID,18.8629,VALID,27,VALID,0.741797,
2009-09-27, 03:36:04,VALID,916.438,VALID,0,VALID,96.1999,VALID,0,VALID,18.8629,VALID,27,VALID,0.748047,
2009-09-27, 03:37:04,VALID,916.48,VALID,0,VALID,96.177,VALID,0,VALID,18.8824,VALID,27,VALID,0.815234,
2009-09-27, 03:38:04,VALID,916.471,VALID,0,VALID,96.1313,VALID,0,VALID,18.8824,VALID,27,VALID,0.729688,
2009-09-27, 03:39:04,VALID,916.471,VALID,0,VALID,96.1999,VALID,0,VALID,18.9019,VALID,27,VALID,0.826172,
2009-09-27, 03:40:04,VALID,916.478,VALID,0,VALID,96.3066,VALID,0,VALID,18.9214,VALID,27,VALID,0.814844,
2009-09-27, 03:41:04,VALID,916.459,VALID,0,VALID,96.2837,VALID,0,VALID,18.9214,VALID,27,VALID,0.71875,
2009-09-27, 03:42:04,VALID,916.438,VALID,0,VALID,96.3219,VALID,0,VALID,18.9214,VALID,27,VALID,0.842188,